Location: Rowland
(34.5359°N, 79.2929°W)
Time: 20:15:51
(UTC+00:00)

Transit 2A - Pass Details

Date: 14 October 2022
Orbit: 598 x 959 km, 66.7° (Epoch: 03 December)

Event Time Altitude Azimuth Distance (km) Brightness Sun altitude
Rises 11:29:10 0° 321° (NW) 3,081 8.7 0.6°
Reaches altitude 10° 11:31:36 10° 312° (NW) 2,215 7.9 1.1°
Maximum altitude 11:36:05 33° 249° (WSW) 1,286 6.8 2.0°
Drops below altitude 10° 11:40:59 10° 187° (S) 2,420 8.7 3.0°
Sets 11:43:45 0° 178° (S) 3,411 9.6 3.6°
